When you browse on this site, cookies collect data to enhance your experience and personalize the content and advertising you see.
Visit our Privacy Policy to learn more. By continuing to use the site, you agree to this use of cookies and data.
  • In United Kingdom
  • List of Countries
  • For 7 days
  • Water Temperature
  • Satellite Maps
  • Weather Map
  • Weather Widgets
  • user-avatar
    Login

    Hourly Weather Ch'ŏngjin

    Today, 23 April, Tuesday

    Time Temperature Precipitation Wind Pressure Humidity
    00:00 +10°C° 0 mm 2 mps 760 mmHg 65%
    01:00 +11°C° 0 mm 1 mps 760 mmHg 65%
    02:00 +11°C° 0 mm 1 mps 759 mmHg 66%
    03:00 +11°C° 0 mm 1 mps 759 mmHg 67%
    04:00 +11°C° 0 mm 1 mps 758 mmHg 66%
    05:00 +12°C° 0 mm 2 mps 758 mmHg 64%
    06:00 +12°C° 0 mm 2 mps 758 mmHg 63%
    07:00 +15°C° 0 mm 2 mps 758 mmHg 56%
    08:00 +18°C° 0 mm 2 mps 757 mmHg 50%
    09:00 +20°C° 0 mm 2 mps 757 mmHg 44%
    10:00 +23°C° 0 mm 2 mps 757 mmHg 43%
    11:00 +24°C° 0 mm 3 mps 757 mmHg 42%
    12:00 +25°C° 0 mm 3 mps 757 mmHg 41%
    13:00 +26°C° 0 mm 3 mps 756 mmHg 41%
    14:00 +26°C° 0 mm 3 mps 756 mmHg 41%
    15:00 +26°C° 0 mm 3 mps 756 mmHg 42%
    16:00 +25°C° 0 mm 2 mps 756 mmHg 46%
    17:00 +24°C° 0 mm 2 mps 756 mmHg 51%
    18:00 +21°C° 0 mm 2 mps 756 mmHg 56%
    19:00 +20°C° 0 mm 2 mps 756 mmHg 61%
    20:00 +19°C° 0 mm 2 mps 757 mmHg 66%
    21:00 +18°C° 0 mm 1 mps 757 mmHg 71%
    22:00 +18°C° 0 mm 1 mps 757 mmHg 73%
    23:00 +18°C° 0 mm 1 mps 757 mmHg 74%

    Tomorrow, 24 April, Wednesday

    Time Temperature Precipitation Wind Pressure Humidity
    00:00 +16°C° 0 mm 1 mps 757 mmHg 76%
    01:00 +16°C° 0 mm 1 mps 757 mmHg 77%
    02:00 +16°C° 0 mm 1 mps 757 mmHg 78%
    03:00 +16°C° 0 mm 1 mps 757 mmHg 79%
    04:00 +16°C° 0 mm 1 mps 757 mmHg 79%
    05:00 +16°C° 0 mm 1 mps 757 mmHg 79%
    06:00 +16°C° 0 mm 2 mps 757 mmHg 79%
    07:00 +16°C° 0 mm 2 mps 757 mmHg 79%
    08:00 +16°C° 0 mm 2 mps 757 mmHg 79%
    09:00 +16°C° 0 mm 2 mps 757 mmHg 79%
    10:00 +16°C° 0.1 mm 2 mps 757 mmHg 77%
    11:00 +15°C° 0.1 mm 2 mps 757 mmHg 76%
    12:00 +15°C° 0.1 mm 2 mps 758 mmHg 75%
    13:00 +16°C° 0 mm 2 mps 757 mmHg 63%
    14:00 +17°C° 0 mm 2 mps 757 mmHg 51%
    15:00 +18°C° 0 mm 3 mps 756 mmHg 40%
    16:00 +17°C° 0 mm 3 mps 757 mmHg 40%
    17:00 +17°C° 0 mm 3 mps 757 mmHg 41%
    18:00 +15°C° 0 mm 4 mps 757 mmHg 41%
    19:00 +14°C° 0 mm 4 mps 757 mmHg 47%
    20:00 +13°C° 0 mm 4 mps 758 mmHg 52%
    21:00 +12°C° 0 mm 4 mps 758 mmHg 57%
    22:00 +12°C° 0 mm 4 mps 758 mmHg 53%
    23:00 +12°C° 0 mm 4 mps 759 mmHg 49%

    Day after tomorrow, 25 April, Thursday

    Time Temperature Precipitation Wind Pressure Humidity
    00:00 +10°C° 0 mm 5 mps 759 mmHg 46%
    01:00 +11°C° 0 mm 4 mps 759 mmHg 42%
    02:00 +11°C° 0 mm 4 mps 759 mmHg 39%
    03:00 +10°C° 0 mm 4 mps 758 mmHg 36%
    04:00 +10°C° 0 mm 4 mps 759 mmHg 37%
    05:00 +10°C° 0 mm 3 mps 759 mmHg 37%
    06:00 +9°C° 0 mm 3 mps 759 mmHg 38%
    07:00 +10°C° 0 mm 3 mps 759 mmHg 35%
    08:00 +11°C° 0 mm 3 mps 760 mmHg 32%
    09:00 +12°C° 0 mm 3 mps 760 mmHg 30%
    10:00 +12°C° 0 mm 3 mps 760 mmHg 30%
    11:00 +13°C° 0 mm 3 mps 760 mmHg 30%
    12:00 +13°C° 0 mm 3 mps 760 mmHg 30%
    13:00 +13°C° 0 mm 3 mps 759 mmHg 31%
    14:00 +13°C° 0 mm 3 mps 759 mmHg 32%
    15:00 +14°C° 0 mm 2 mps 758 mmHg 33%
    16:00 +13°C° 0 mm 2 mps 758 mmHg 36%
    17:00 +13°C° 0 mm 2 mps 758 mmHg 39%
    18:00 +12°C° 0 mm 2 mps 758 mmHg 42%
    19:00 +10°C° 0 mm 2 mps 759 mmHg 45%
    20:00 +10°C° 0 mm 1 mps 759 mmHg 48%
    21:00 +9°C° 0 mm 1 mps 760 mmHg 52%
    22:00 +8°C° 0 mm 1 mps 760 mmHg 52%
    23:00 +8°C° 0 mm 1 mps 760 mmHg 53%

    26 April, Friday

    Time Temperature Precipitation Wind Pressure Humidity
    00:00 +7°C° 0 mm 2 mps 760 mmHg 53%
    01:00 +7°C° 0 mm 2 mps 760 mmHg 53%
    02:00 +5°C° 0 mm 3 mps 760 mmHg 52%
    03:00 +5°C° 0 mm 3 mps 760 mmHg 52%
    04:00 +5°C° 0 mm 3 mps 760 mmHg 52%
    05:00 +5°C° 0 mm 3 mps 761 mmHg 53%
    06:00 +7°C° 0 mm 3 mps 761 mmHg 54%
    07:00 +8°C° 0 mm 3 mps 761 mmHg 53%
    08:00 +8°C° 0 mm 4 mps 761 mmHg 52%
    09:00 +11°C° 0 mm 4 mps 762 mmHg 50%
    10:00 +11°C° 0 mm 4 mps 762 mmHg 52%
    11:00 +11°C° 0 mm 4 mps 762 mmHg 55%
    12:00 +11°C° 0 mm 4 mps 762 mmHg 57%
    13:00 +11°C° 0.1 mm 4 mps 762 mmHg 57%
    14:00 +11°C° 0.1 mm 3 mps 761 mmHg 58%
    15:00 +11°C° 0.1 mm 3 mps 761 mmHg 59%
    16:00 +11°C° 0 mm 3 mps 761 mmHg 62%
    17:00 +10°C° 0 mm 3 mps 762 mmHg 64%
    18:00 +10°C° 0 mm 3 mps 762 mmHg 67%
    19:00 +9°C° 0 mm 2 mps 762 mmHg 70%
    20:00 +8°C° 0 mm 2 mps 763 mmHg 73%
    21:00 +8°C° 0 mm 1 mps 764 mmHg 77%
    22:00 +7°C° 0 mm 2 mps 764 mmHg 73%
    23:00 +7°C° 0 mm 2 mps 764 mmHg 69%

    27 April, Saturday

    Time Temperature Precipitation Wind Pressure Humidity
    00:00 +7°C° 0 mm 2 mps 764 mmHg 64%
    01:00 +7°C° 0 mm 2 mps 764 mmHg 62%
    02:00 +6°C° 0 mm 2 mps 764 mmHg 59%
    03:00 +6°C° 0 mm 2 mps 764 mmHg 56%
    04:00 +6°C° 0 mm 2 mps 764 mmHg 55%
    05:00 +6°C° 0 mm 2 mps 764 mmHg 54%
    06:00 +6°C° 0 mm 2 mps 765 mmHg 53%
    07:00 +9°C° 0 mm 2 mps 765 mmHg 47%
    08:00 +13°C° 0 mm 1 mps 764 mmHg 41%
    09:00 +16°C° 0 mm 1 mps 764 mmHg 36%
    10:00 +17°C° 0 mm 2 mps 764 mmHg 33%
    11:00 +18°C° 0 mm 2 mps 764 mmHg 30%
    12:00 +20°C° 0 mm 3 mps 763 mmHg 27%
    13:00 +19°C° 0 mm 4 mps 763 mmHg 28%
    14:00 +19°C° 0 mm 5 mps 762 mmHg 29%
    15:00 +19°C° 0 mm 5 mps 762 mmHg 30%
    16:00 +17°C° 0 mm 5 mps 762 mmHg 35%
    17:00 +16°C° 0 mm 5 mps 762 mmHg 39%
    18:00 +15°C° 0 mm 5 mps 762 mmHg 44%
    19:00 +13°C° 0 mm 4 mps 762 mmHg 47%
    20:00 +12°C° 0 mm 3 mps 763 mmHg 49%
    21:00 +10°C° 0 mm 3 mps 763 mmHg 52%
    22:00 +10°C° 0 mm 2 mps 763 mmHg 49%
    23:00 +10°C° 0 mm 2 mps 763 mmHg 46%

    28 April, Sunday

    Time Temperature Precipitation Wind Pressure Humidity
    00:00 +10°C° 0 mm 2 mps 764 mmHg 44%
    01:00 +10°C° 0 mm 2 mps 763 mmHg 42%
    02:00 +10°C° 0 mm 2 mps 763 mmHg 41%
    03:00 +10°C° 0 mm 2 mps 763 mmHg 39%
    04:00 +10°C° 0 mm 2 mps 763 mmHg 40%
    05:00 +10°C° 0 mm 2 mps 763 mmHg 41%
    06:00 +11°C° 0 mm 1 mps 763 mmHg 42%
    07:00 +13°C° 0 mm 2 mps 762 mmHg 38%
    08:00 +16°C° 0 mm 2 mps 762 mmHg 35%
    09:00 +18°C° 0 mm 2 mps 761 mmHg 32%
    10:00 +19°C° 0 mm 3 mps 761 mmHg 32%
    11:00 +20°C° 0 mm 3 mps 760 mmHg 33%
    12:00 +20°C° 0 mm 4 mps 760 mmHg 34%
    13:00 +20°C° 0 mm 4 mps 759 mmHg 36%
    14:00 +20°C° 0 mm 4 mps 759 mmHg 38%
    15:00 +20°C° 0 mm 4 mps 758 mmHg 40%
    16:00 +19°C° 0 mm 3 mps 759 mmHg 45%
    17:00 +18°C° 0 mm 3 mps 759 mmHg 50%
    18:00 +17°C° 0 mm 2 mps 759 mmHg 55%
    19:00 +16°C° 0 mm 2 mps 759 mmHg 58%
    20:00 +15°C° 0 mm 2 mps 760 mmHg 61%
    21:00 +14°C° 0 mm 1 mps 760 mmHg 64%
    22:00 +13°C° 0 mm 1 mps 760 mmHg 66%
    23:00 +13°C° 0 mm 1 mps 760 mmHg 67%
    Show more